Time,TemperatureF,DewpointF,PressureIn,WindDirection,WindDirectionDegrees,WindSpeedMPH,WindSpeedGustMPH,Humidity,HourlyPrecipIn,Conditions,Clouds,dailyrainin,SoftwareType,DateUTC
2013-01-14 00:03:00,57.5,57.0,30.04,ENE,60,0.0,1.0,97,0.05,,,0.32,weatherlink.com 1.10,2013-01-14 05:03:00,
2013-01-14 00:18:00,57.4,57.0,30.04,ENE,60,0.0,0.0,98,0.04,,,0.33,weatherlink.com 1.10,2013-01-14 05:18:00,
2013-01-14 00:33:00,57.4,57.0,30.05,ENE,60,0.0,0.0,98,0.05,,,0.35,weatherlink.com 1.10,2013-01-14 05:33:00,
2013-01-14 00:48:00,57.5,57.0,30.05,WSW,244,0.0,1.0,98,0.08,,,0.39,weatherlink.com 1.10,2013-01-14 05:48:00,
2013-01-14 01:03:00,57.6,57.0,30.05,ESE,108,1.0,1.0,98,0.11,,,0.43,weatherlink.com 1.10,2013-01-14 06:03:00,
2013-01-14 01:18:00,55.4,54.0,30.05,NNW,331,1.0,12.0,94,0.11,,,0.44,weatherlink.com 1.10,2013-01-14 06:18:00,
2013-01-14 01:33:00,54.0,52.0,30.06,NE,40,2.0,9.0,94,0.10,,,0.45,weatherlink.com 1.10,2013-01-14 06:33:00,
2013-01-14 01:48:00,52.9,51.0,30.06,WNW,282,0.0,3.0,94,0.06,,,0.45,weatherlink.com 1.10,2013-01-14 06:48:00,
2013-01-14 02:03:00,52.1,51.0,30.08,WNW,297,1.0,3.0,95,0.02,,,0.45,weatherlink.com 1.10,2013-01-14 07:03:00,
2013-01-14 02:18:00,51.1,50.0,30.09,West,264,4.0,4.0,94,0.00,,,0.45,weatherlink.com 1.10,2013-01-14 07:18:00,
2013-01-14 02:33:00,49.9,48.0,30.10,WNW,302,2.0,6.0,94,0.00,,,0.45,weatherlink.com 1.10,2013-01-14 07:33:00,
2013-01-14 02:49:00,48.3,46.0,30.11,SW,232,0.0,4.0,93,0.00,,,0.45,weatherlink.com 1.10,2013-01-14 07:49:00,
2013-01-14 03:04:00,46.9,45.0,30.13,NW,324,0.0,9.0,94,0.00,,,0.45,weatherlink.com 1.10,2013-01-14 08:04:00,
2013-01-14 03:19:00,45.4,44.0,30.13,WNW,290,4.0,12.0,93,0.01,,,0.00,weatherlink.com 1.10,2013-01-14 08:19:00,
2013-01-14 03:34:00,44.3,43.0,30.14,West,281,0.0,9.0,94,0.02,,,0.01,weatherlink.com 1.10,2013-01-14 08:34:00,
2013-01-14 03:49:00,43.8,43.0,30.14,NW,311,0.0,4.0,95,0.06,,,0.05,weatherlink.com 1.10,2013-01-14 08:49:00,
2013-01-14 04:04:00,43.4,42.0,30.16,SSW,204,1.0,3.0,94,0.09,,,0.08,weatherlink.com 1.10,2013-01-14 09:04:00,
2013-01-14 04:19:00,42.9,41.0,30.16,NE,54,0.0,6.0,93,0.08,,,0.08,weatherlink.com 1.10,2013-01-14 09:19:00,
2013-01-14 04:34:00,42.7,41.0,30.16,NNE,32,0.0,6.0,94,0.07,,,0.08,weatherlink.com 1.10,2013-01-14 09:34:00,
2013-01-14 04:49:00,42.5,41.0,30.16,WNW,285,0.0,2.0,95,0.03,,,0.08,weatherlink.com 1.10,2013-01-14 09:49:00,
2013-01-14 05:04:00,42.2,41.0,30.17,West,277,1.0,3.0,95,0.00,,,0.08,weatherlink.com 1.10,2013-01-14 10:04:00,
2013-01-14 05:19:00,42.0,41.0,30.17,NNE,16,2.0,3.0,95,0.00,,,0.08,weatherlink.com 1.10,2013-01-14 10:19:00,
2013-01-14 05:34:00,41.5,40.0,30.18,North,353,0.0,5.0,94,0.00,,,0.08,weatherlink.com 1.10,2013-01-14 10:34:00,
2013-01-14 05:49:00,41.4,40.0,30.18,North,349,0.0,4.0,94,0.00,,,0.08,weatherlink.com 1.10,2013-01-14 10:49:00,
2013-01-14 06:04:00,41.4,40.0,30.19,NNE,26,0.0,6.0,94,0.00,,,0.08,weatherlink.com 1.10,2013-01-14 11:04:00,
2013-01-14 06:19:00,41.1,40.0,30.19,NNE,29,1.0,7.0,94,0.01,,,0.09,weatherlink.com 1.10,2013-01-14 11:19:00,
2013-01-14 06:34:00,41.1,39.0,30.20,SSE,165,0.0,4.0,93,0.01,,,0.09,weatherlink.com 1.10,2013-01-14 11:34:00,
2013-01-14 06:49:00,41.2,40.0,30.21,NE,34,1.0,4.0,94,0.01,,,0.09,weatherlink.com 1.10,2013-01-14 11:49:00,
2013-01-14 07:04:00,40.9,39.0,30.21,North,354,2.0,4.0,94,0.01,,,0.09,weatherlink.com 1.10,2013-01-14 12:04:00,
2013-01-14 07:19:00,40.6,39.0,30.23,NE,41,3.0,3.0,94,0.00,,,0.09,weatherlink.com 1.10,2013-01-14 12:19:00,
2013-01-14 07:34:00,40.4,39.0,30.23,NNE,17,0.0,3.0,95,0.00,,,0.09,weatherlink.com 1.10,2013-01-14 12:34:00,
2013-01-14 07:49:00,40.1,39.0,30.23,NNE,27,2.0,3.0,95,0.00,,,0.09,weatherlink.com 1.10,2013-01-14 12:49:00,
2013-01-14 08:05:00,40.0,39.0,30.25,NW,326,0.0,0.0,96,0.00,,,0.09,weatherlink.com 1.10,2013-01-14 13:05:00,
2013-01-14 08:20:00,39.9,39.0,30.24,North,358,2.0,5.0,95,0.00,,,0.09,weatherlink.com 1.10,2013-01-14 13:20:00,
2013-01-14 08:35:00,39.8,39.0,30.26,NNW,338,0.0,5.0,96,0.00,,,0.09,weatherlink.com 1.10,2013-01-14 13:35:00,
2013-01-14 08:50:00,39.9,39.0,30.27,NE,51,2.0,3.0,96,0.00,,,0.09,weatherlink.com 1.10,2013-01-14 13:50:00,
2013-01-14 09:05:00,39.7,39.0,30.27,North,354,3.0,6.0,96,0.00,,,0.09,weatherlink.com 1.10,2013-01-14 14:05:00,
2013-01-14 09:20:00,39.6,39.0,30.27,NNE,22,3.0,8.0,96,0.00,,,0.09,weatherlink.com 1.10,2013-01-14 14:20:00,
2013-01-14 09:35:00,39.4,38.0,30.27,NNW,329,3.0,5.0,96,0.00,,,0.09,weatherlink.com 1.10,2013-01-14 14:35:00,
2013-01-14 09:50:00,39.4,38.0,30.26,NNE,23,3.0,6.0,95,0.00,,,0.09,weatherlink.com 1.10,2013-01-14 14:50:00,
2013-01-14 10:05:00,39.5,39.0,30.28,NNW,348,3.0,5.0,96,0.00,,,0.09,weatherlink.com 1.10,2013-01-14 15:05:00,
2013-01-14 10:20:00,39.6,39.0,30.30,WNW,298,1.0,4.0,96,0.00,,,0.09,weatherlink.com 1.10,2013-01-14 15:20:00,
2013-01-14 10:35:00,39.4,38.0,30.30,North,360,0.0,6.0,95,0.00,,,0.09,weatherlink.com 1.10,2013-01-14 15:35:00,
2013-01-14 10:50:00,39.5,38.0,30.28,WNW,288,2.0,9.0,95,0.00,,,0.09,weatherlink.com 1.10,2013-01-14 15:50:00,
2013-01-14 11:05:00,39.8,39.0,30.28,NNE,16,1.0,4.0,95,0.00,,,0.09,weatherlink.com 1.10,2013-01-14 16:05:00,
2013-01-14 11:20:00,39.9,38.0,30.28,North,1,0.0,5.0,94,0.00,,,0.09,weatherlink.com 1.10,2013-01-14 16:20:00,
2013-01-14 11:35:00,39.9,38.0,30.26,NNE,13,7.0,9.0,94,0.00,,,0.09,weatherlink.com 1.10,2013-01-14 16:35:00,
2013-01-14 11:50:00,39.9,39.0,30.25,NNE,28,3.0,6.0,95,0.00,,,0.09,weatherlink.com 1.10,2013-01-14 16:50:00,
2013-01-14 12:05:00,40.0,39.0,30.24,NNW,342,1.0,7.0,95,0.00,,,0.09,weatherlink.com 1.10,2013-01-14 17:05:00,
2013-01-14 12:20:00,39.5,38.0,30.23,NNW,335,2.0,4.0,95,0.00,,,0.09,weatherlink.com 1.10,2013-01-14 17:20:00,
2013-01-14 12:35:00,39.6,38.0,30.22,NNW,344,2.0,3.0,95,0.00,,,0.09,weatherlink.com 1.10,2013-01-14 17:35:00,
2013-01-14 12:50:00,39.8,39.0,30.20,NNE,20,3.0,5.0,95,0.00,,,0.09,weatherlink.com 1.10,2013-01-14 17:50:00,
2013-01-14 13:05:00,39.9,39.0,30.21,NNW,328,2.0,2.0,96,0.00,,,0.09,weatherlink.com 1.10,2013-01-14 18:05:00,
2013-01-14 13:20:00,39.8,39.0,30.19,NNW,333,2.0,3.0,95,0.00,,,0.09,weatherlink.com 1.10,2013-01-14 18:20:00,
2013-01-14 13:35:00,39.9,39.0,30.19,ENE,61,2.0,2.0,96,0.00,,,0.09,weatherlink.com 1.10,2013-01-14 18:35:00,
2013-01-14 13:50:00,40.1,39.0,30.20,NE,40,2.0,4.0,96,0.00,,,0.09,weatherlink.com 1.10,2013-01-14 18:50:00,
2013-01-14 14:05:00,39.9,39.0,30.20,WNW,286,2.0,4.0,96,0.00,,,0.09,weatherlink.com 1.10,2013-01-14 19:05:00,
2013-01-14 14:20:00,39.7,39.0,30.20,NNE,19,0.0,3.0,96,0.00,,,0.09,weatherlink.com 1.10,2013-01-14 19:20:00,
2013-01-14 14:35:00,39.6,39.0,30.20,NNW,346,1.0,6.0,96,0.00,,,0.09,weatherlink.com 1.10,2013-01-14 19:35:00,
2013-01-14 14:50:00,39.5,39.0,30.18,NNE,27,1.0,2.0,96,0.00,,,0.09,weatherlink.com 1.10,2013-01-14 19:50:00,
2013-01-14 15:05:00,39.5,39.0,30.21,NNE,30,1.0,3.0,96,0.00,,,0.09,weatherlink.com 1.10,2013-01-14 20:05:00,
2013-01-14 15:20:00,39.1,38.0,30.21,NE,40,2.0,6.0,95,0.00,,,0.09,weatherlink.com 1.10,2013-01-14 20:20:00,
2013-01-14 15:36:00,38.9,38.0,30.22,NE,42,2.0,3.0,96,0.01,,,0.10,weatherlink.com 1.10,2013-01-14 20:36:00,
2013-01-14 15:50:00,38.9,38.0,30.24,NW,308,1.0,3.0,96,0.01,,,0.10,weatherlink.com 1.10,2013-01-14 20:50:00,
2013-01-14 16:06:00,38.6,37.0,30.23,NW,309,3.0,6.0,95,0.01,,,0.10,weatherlink.com 1.10,2013-01-14 21:06:00,
2013-01-14 16:20:00,38.0,37.0,30.24,North,8,4.0,9.0,95,0.01,,,0.10,weatherlink.com 1.10,2013-01-14 21:20:00,
2013-01-14 16:36:00,37.5,37.0,30.25,NW,308,1.0,4.0,96,0.01,,,0.11,weatherlink.com 1.10,2013-01-14 21:36:00,
2013-01-14 16:50:00,37.3,36.0,30.28,North,354,3.0,6.0,96,0.03,,,0.13,weatherlink.com 1.10,2013-01-14 21:50:00,
2013-01-14 17:06:00,37.0,36.0,30.30,North,5,3.0,8.0,95,0.06,,,0.16,weatherlink.com 1.10,2013-01-14 22:06:00,
2013-01-14 17:20:00,36.8,36.0,30.31,NNE,23,0.0,5.0,95,0.09,,,0.19,weatherlink.com 1.10,2013-01-14 22:20:00,
2013-01-14 17:36:00,36.5,35.0,30.31,NNE,29,3.0,6.0,94,0.10,,,0.21,weatherlink.com 1.10,2013-01-14 22:36:00,
2013-01-14 17:52:00,36.3,35.0,30.33,NNE,23,0.0,3.0,94,0.08,,,0.21,weatherlink.com 1.10,2013-01-14 22:52:00,
2013-01-14 18:06:00,36.0,34.0,30.33,WSW,239,1.0,9.0,93,0.06,,,0.22,weatherlink.com 1.10,2013-01-14 23:06:00,
2013-01-14 18:21:00,35.7,34.0,30.34,NW,314,4.0,6.0,94,0.03,,,0.22,weatherlink.com 1.10,2013-01-14 23:21:00,
2013-01-14 18:36:00,34.9,33.0,30.36,WNW,287,0.0,8.0,93,0.01,,,0.22,weatherlink.com 1.10,2013-01-14 23:36:00,
2013-01-14 18:51:00,34.4,33.0,30.38,SSW,193,3.0,6.0,94,0.02,,,0.23,weatherlink.com 1.10,2013-01-14 23:51:00,
2013-01-14 19:06:00,34.2,33.0,30.38,NE,34,3.0,10.0,94,0.04,,,0.26,weatherlink.com 1.10,2013-01-15 00:06:00,
2013-01-14 19:21:00,34.0,32.0,30.36,NNW,331,0.0,9.0,93,0.05,,,0.27,weatherlink.com 1.10,2013-01-15 00:21:00,
2013-01-14 19:36:00,33.9,32.0,30.37,NE,47,3.0,14.0,93,0.06,,,0.28,weatherlink.com 1.10,2013-01-15 00:36:00,
2013-01-14 19:51:00,33.8,32.0,30.39,NE,48,1.0,9.0,93,0.06,,,0.29,weatherlink.com 1.10,2013-01-15 00:51:00,
2013-01-14 20:06:00,33.7,32.0,30.38,NE,54,2.0,4.0,93,0.06,,,0.32,weatherlink.com 1.10,2013-01-15 01:06:00,
2013-01-14 20:21:00,33.5,32.0,30.38,North,360,2.0,4.0,94,0.08,,,0.35,weatherlink.com 1.10,2013-01-15 01:21:00,
2013-01-14 20:36:00,33.3,32.0,30.38,NNW,346,2.0,9.0,94,0.11,,,0.39,weatherlink.com 1.10,2013-01-15 01:36:00,
2013-01-14 20:51:00,33.1,32.0,30.38,NNE,22,0.0,6.0,94,0.12,,,0.41,weatherlink.com 1.10,2013-01-15 01:51:00,
2013-01-14 21:06:00,33.1,32.0,30.37,SE,134,0.0,3.0,94,0.12,,,0.44,weatherlink.com 1.10,2013-01-15 02:06:00,
2013-01-14 21:21:00,33.0,32.0,30.37,SE,132,0.0,3.0,95,0.11,,,0.47,weatherlink.com 1.10,2013-01-15 02:21:00,
2013-01-14 21:36:00,33.0,32.0,30.34,SSE,148,0.0,3.0,95,0.09,,,0.48,weatherlink.com 1.10,2013-01-15 02:36:00,
2013-01-14 21:51:00,33.2,32.0,30.33,NW,326,0.0,3.0,96,0.08,,,0.49,weatherlink.com 1.10,2013-01-15 02:51:00,
2013-01-14 22:06:00,33.4,32.0,30.33,WNW,285,0.0,1.0,96,0.06,,,0.50,weatherlink.com 1.10,2013-01-15 03:06:00,
2013-01-14 22:21:00,33.4,32.0,30.31,North,352,0.0,1.0,96,0.03,,,0.50,weatherlink.com 1.10,2013-01-15 03:21:00,
2013-01-14 22:36:00,33.6,33.0,30.31,North,353,0.0,1.0,96,0.03,,,0.51,weatherlink.com 1.10,2013-01-15 03:36:00,
2013-01-14 22:51:00,33.5,33.0,30.30,North,352,0.0,1.0,96,0.03,,,0.52,weatherlink.com 1.10,2013-01-15 03:51:00,
2013-01-14 23:08:00,33.5,33.0,30.29,NNE,23,0.0,1.0,97,0.02,,,0.52,weatherlink.com 1.10,2013-01-15 04:08:00,
2013-01-14 23:21:00,33.6,33.0,30.28,NE,42,0.0,1.0,97,0.02,,,0.52,weatherlink.com 1.10,2013-01-15 04:21:00,
2013-01-14 23:36:00,33.9,33.0,30.26,NNE,16,0.0,1.0,97,0.01,,,0.52,weatherlink.com 1.10,2013-01-15 04:36:00,
2013-01-14 23:51:00,33.9,33.0,30.26,NNE,16,0.0,1.0,97,0.00,,,0.52,weatherlink.com 1.10,2013-01-15 04:51:00,